This is the latest recevied weather packets stored in our database for station/object WA1OUI. If no packets are shown the sender has not sent any weather packets the latest 10 day(s).
| Time | Temp. | Humidity | Pressure | Rain* | Wind** | Luminosity | Snow |
|---|---|---|---|---|---|---|---|
| 1777781505 | 7.22° C | 59% | 1009.8 hPa | 0 mm | - | 0 W/m² | - |
| 1777781202 | 7.22° C | 56% | 1009.7 hPa | 0 mm | - | 0 W/m² | - |
| 1777780899 | 7.22° C | 60% | 1009.6 hPa | 0 mm | - | 0 W/m² | - |
| 1777780595 | 7.22° C | 58% | 1009.5 hPa | 0 mm | - | 0 W/m² | - |
| 1777780293 | 7.22° C | 61% | 1009.7 hPa | 0 mm | - | 0 W/m² | - |
| 1777779991 | 7.22° C | 60% | 1009.8 hPa | 0 mm | - | 0 W/m² | - |
| 1777779688 | 7.22° C | 60% | 1009.7 hPa | 0 mm | - | 0 W/m² | - |
| 1777779385 | 7.22° C | 63% | 1009.7 hPa | 0 mm | - | 0 W/m² | - |
| 1777779082 | 7.22° C | 61% | 1009.7 hPa | 0 mm | - | 0 W/m² | - |
| 1777778781 | 6.67° C | 64% | 1009.5 hPa | 0 mm | - | 0 W/m² | - |
| 1777778479 | 6.67° C | 61% | 1009.6 hPa | 0 mm | - | 0 W/m² | - |
| 1777778176 | 6.67° C | 65% | 1009.8 hPa | 0 mm | - | 0 W/m² | - |
| 1777777873 | 6.67° C | 64% | 1009.8 hPa | 0 mm | - | 0 W/m² | - |
| 1777777569 | 6.67° C | 67% | 1009.6 hPa | 0 mm | - | 0 W/m² | - |
| 1777777266 | 6.67° C | 64% | 1009.8 hPa | 0 mm | - | 0 W/m² | - |
| 1777776963 | 7.22° C | 66% | 1009.8 hPa | 0 mm | - | 0 W/m² | - |
| 1777776661 | 7.22° C | 65% | 1010 hPa | 0 mm | - | 0 W/m² | - |
| 1777776356 | 7.22° C | 66% | 1009.8 hPa | 0 mm | - | 0 W/m² | - |
| 1777776054 | 7.22° C | 66% | 1009.9 hPa | 0 mm | - | 0 W/m² | - |
| 1777775751 | 7.22° C | 66% | 1010.1 hPa | 0 mm | - | 0 W/m² | - |
| 1777775448 | 6.67° C | 65% | 1010.2 hPa | 0 mm | - | 0 W/m² | - |
| 1777775144 | 7.22° C | 68% | 1010.1 hPa | 0 mm | - | 0 W/m² | - |
| 1777774839 | 7.22° C | 66% | 1010.1 hPa | 0 mm | - | 0 W/m² | - |
| 1777774536 | 7.22° C | 64% | 1009.8 hPa | 0 mm | - | 0 W/m² | - |
| 1777774233 | 7.22° C | 65% | 1009.9 hPa | 0 mm | - | 0 W/m² | - |
* Rain latest hour (hover to see other rain measurements)
** Current wind speed in m/s (hover to see current wind gust speed)